Current weather by "City, St" or "zip code"  
 

Current Conditions: Frankfort, Capital City Airport, KY

Rain Fog/Mist


54.0 F

Last Updated on Feb 27 2021, 11:53 pm EST
Humidity: 93%
Wind Speed: N 0.0 mph
Barometer 30.07 in
Dewpoint: 52.0 F
Visibility: 5.00 mi
Precip: 00.10 in
Heat Index: NA
Wind Chill: NA
Current conditions at:

Frankfort, Capital City Airport, KY (KFFT)

Lat: 38.18472 Lon: 84.90333

Local Radar Image active severe weather and emergency alerts image image weather storm and storm spotter reports image weather observation monitoring service image
Local
Radar
Active
Alerts
Storm Reports Obs
Monitoring

Sign-up For Email & Text Message Weather Alert Notification Services



Advertise Here

Observation History for Frankfort, Capital City Airport, KY


Time Wind
(mph)
Vis
(mi)
Weather Precip (in) Temperature (F) Relative
Humidity
Wind
Chill
(F)
Heat
Index
(F)
Pressure
Air Dwpt altimeter
(in)
sea level
(mb)
Rmks
11:53 pm EST N 0.0 5.00 Rain Fog/Mist 00.10 54.0 52.0 93% NA NA 30.07 1018.3
10:53 pm EST N 0.0 10.00 Overcast Trace 53.0 50.0 89% NA NA 30.06 1017.8
9:53 pm EST E 11.5 10.00 Light Rain Trace 53.0 48.9 86% 49 NA 30.04 1017.2
8:53 pm EST E 9.2 10.00 Overcast -- 53.0 48.0 83% 50 NA 30.09 1019.0
7:53 pm EST N 0.0 10.00 Mostly Cloudy -- 53.0 46.9 80% NA NA 30.14 1020.7
6:53 pm EST NE 4.6 10.00 Mostly Cloudy -- 53.0 46.9 80% 52 NA 30.11 1019.7
5:53 pm EST E 6.9 10.00 Mostly Cloudy -- 54.0 46.9 77% 52 NA 30.10 1019.2
4:53 pm EST SE 6.9 10.00 A Few Clouds -- 55.0 46.9 74% 53 NA 30.10 1019.4
3:53 pm EST E 3.5 10.00 Fair -- 55.0 46.0 72% NA NA 30.10 1019.3
2:53 pm EST N 0.0 10.00 Mostly Cloudy -- 55.0 46.0 72% NA NA 30.11 1019.5
1:53 pm EST 4.6 10.00 Partly Cloudy -- 54.0 46.0 75% 53 NA 30.11 1019.5
12:53 pm EST S 5.8 10.00 Overcast -- 51.0 45.0 80% 49 NA 30.14 1020.6
11:53 am EST 3.5 10.00 Overcast -- 50.0 45.0 83% NA NA 30.14 1020.9
10:53 am EST NW 3.5 10.00 Overcast -- 49.0 44.1 83% NA NA 30.13 1020.6
9:53 am EST NW 6.9 7.00 Overcast -- 49.0 45.0 86% 46 NA 30.10 1019.4
8:53 am EST W 4.6 G 18.4 10.00 Overcast -- 50.0 46.0 86% 48 NA 30.06 1018.3
7:53 am EST W 6.9 10.00 Overcast -- 51.0 48.0 89% 48 NA 30.00 1016.2
6:53 am EST W 5.8 2.00 Fog/Mist -- 50.0 46.9 89% 48 NA 29.96 1014.8
5:53 am EST N 0.0 1.00 Fog/Mist 00.02 49.0 46.9 93% NA NA 29.93 1013.5
4:53 am EST N 0.0 2.00 Fog/Mist 00.02 48.0 46.0 93% NA NA 29.90 1012.7
3:53 am EST S 4.6 2.00 Rain Fog/Mist 00.06 48.0 45.0 89% 46 NA 29.90 1012.7
2:53 am EST SE 5.8 8.00 Overcast Trace 47.0 44.1 90% 44 NA 29.89 1012.2
1:53 am EST S 5.8 10.00 Overcast -- 47.0 44.1 90% 44 NA 29.93 1013.6
12:53 am EST SE 6.9 10.00 Overcast -- 46.0 42.1 86% 42 NA 29.93 1013.6

Regional Weather Observation


Louisville, Bowman Field Airport, KY (KLOU)

Light Rain Fog/Mist
54.0 F

Madison Municipal Airport, IN (KIMS)

Overcast
50.0 F

Clark Regional Airport, IN (KJVY)

Rain
52.0 F

Louisville Muhammad Ali International Airport, KY (KSDF)

Light Rain Fog/Mist
53.0 F

Lexington Blue Grass Airport, KY (KLEX)

Light Rain
53.0 F

Georgetown Scott County Regional Airport, KY (K27K)

Overcast
50.0 F

Advertise Here


Advertise Here